Hourly Data Report for July 16, 2021

WINDSOR A
ONTARIO
Current Station Operator: NAVCAN

42°16'34.000" N
82°57'19.000" W
189.60 m
6139530
71538
YQG

Download Data

Hourly Data (July 2021)
Hourly Data Report for July 16, 2021
TIME
LST
Temp Definition
°C
Dew Point Definition
°C
Rel Hum Definition
%
Precip. Amount Definition
mm

Wind Dir Definition
10's deg

Wind Spd Definition
km/h
Visibility Definition
km
Stn Press Definition
kPa
Hmdx Definition


Wind Chill Definition


Weather Definition


00:00 23.4 19.6 79 0.0 35 8 16.1 99.38 31   LegendNANA
01:00 22.3 18.7 80 0.0 6 11 16.1 99.34 29   LegendNANA
02:00 21.8 18.6 82 0.0 4 13 16.1 99.34 28   LegendNANA
03:00 21.3 19.1 87 0.0 5 9 16.1 99.33 28   LegendNANA
04:00 21.1 19.1 88 0.0 6 9 16.1 99.35 28   Rain
05:00 20.4 19.8 96 4.0 10 8 4.8 99.43 28   Heavy Rain, Fog
06:00 19.8 19.3 97 0.5 9 9 16.1 99.43     LegendNANA
07:00 19.7 18.9 95 0.5 8 11 16.1 99.45     Rain
08:00 19.3 18.3 94 0.8 8 18 16.1 99.45     Rain
09:00 19.0 18.2 95 3.0 7 15 11.3 99.45     Rain
10:00 18.9 18.4 97 7.0 6 28 4.8 99.41     Moderate Rain, Fog
11:00 19.0 18.7 98 38.8 7 18 2.8 99.50     Heavy Rain, Fog
12:00 19.9 19.6 98 2.5 7 15 16.1 99.46     Rain
13:00 19.8 19.3 97 8.0 34 15 4.8 99.50     Moderate Rain, Fog
14:00 19.6 19.1 97 6.5 5 22 4.8 99.45     Heavy Rain, Fog
15:00 20.4 19.9 97 1.8 5 21 16.1 99.40 28   Rain
16:00 20.2 19.6 96 0.0 5 18 16.1 99.40 27   LegendNANA
17:00 20.0 19.2 95 0.0 6 13 16.1 99.40 27   LegendNANA
18:00 20.1 19.1 94 0.0 5 11 16.1 99.37 27   LegendNANA
19:00 20.2 19.3 94 0.0 6 13 16.1 99.36 27   LegendNANA
20:00 19.9 19.1 95 0.0 8 9 16.1 99.37     Rain
21:00 19.8 19.0 95 0.0 8 9 16.1 99.41     Rain
22:00 19.8 18.8 94 0.0 8 11 16.1 99.43     LegendNANA
23:00 19.7 19.1 96 0.0 7 8 16.1 99.43     Rain

Notes on Data Quality.

Legend

  • E = Estimated
  • M = Missing
  • NA = Not Available*
  • [empty] = Indicates an unobserved value
Date modified: